| time (UTC) | temp F | wind direction | speed MPH | gust MPH | rain 1hr in | rain 24hr in | rain mn in | humidity % | barometer mb |
| 20260507022703 | 69 | 160 | 4.0 | 8.0 | 0.00 | 1.27 | 1.27 | 100 | 1013.7 |
| 20260507021803 | 69 | 158 | 3.0 | 8.0 | 0.00 | 1.27 | 1.27 | 100 | 1013.6 |
| 20260507020903 | 69 | 150 | 2.0 | 5.0 | 0.01 | 1.27 | 1.27 | 100 | 1013.9 |
| 20260507020003 | 69 | 152 | 2.0 | 4.0 | 0.05 | 1.27 | 1.27 | 100 | 1013.7 |
| 20260507015403 | 69 | 154 | 1.0 | 4.0 | 0.15 | 1.27 | 1.27 | 100 | 1013.3 |
| 20260507014524 | 69 | 159 | 1.0 | 4.0 | 0.33 | 1.27 | 1.27 | 100 | 1013.8 |
| 20260507013624 | 69 | 141 | 1.0 | 4.0 | 0.67 | 1.27 | 1.27 | 100 | 1013.3 |
| 20260507012703 | 69 | 123 | 0.0 | 3.0 | 0.71 | 1.27 | 1.27 | 100 | 1013.5 |
| 20260507011805 | 69 | 136 | 2.0 | 7.0 | 0.72 | 1.27 | 1.27 | 100 | 1013.5 |
| 20260507010926 | 69 | 152 | 3.0 | 7.0 | 0.76 | 1.26 | 1.26 | 100 | 1013.2 |
| 20260507010005 | 69 | 126 | 2.0 | 6.0 | 0.78 | 1.22 | 1.22 | 100 | 1013.3 |
| 20260507005405 | 70 | 118 | 4.0 | 11.0 | 0.69 | 1.12 | 1.13 | 100 | 1013.4 |
| 20260507004505 | 70 | 176 | 4.0 | 11.0 | 0.57 | 0.94 | 0.94 | 100 | 1014.5 |
| 20260507003605 | 70 | 192 | 2.0 | 8.0 | 0.31 | 0.60 | 0.60 | 99 | 1014.7 |
| 20260507002705 | 70 | 165 | 2.0 | 6.0 | 0.27 | 0.56 | 0.56 | 99 | 1013.1 |
| 20260507001805 | 70 | 154 | 4.0 | 10.0 | 0.28 | 0.55 | 0.55 | 99 | 1012.8 |
| 20260507000905 | 70 | 147 | 2.0 | 7.0 | 0.24 | 0.50 | 0.50 | 99 | 1012.7 |
| 20260507000005 | 70 | 120 | 2.0 | 5.0 | 0.18 | 0.44 | 0.44 | 99 | 1013.2 |
| 20260506235405 | 70 | 69 | 1.0 | 4.0 | 0.17 | 0.43 | 0.43 | 99 | 1013.2 |
| 20260506234505 | 70 | 165 | 2.0 | 4.0 | 0.11 | 0.37 | 0.37 | 98 | 1013.4 |
| 20260506233626 | 71 | 154 | 2.0 | 5.0 | 0.03 | 0.29 | 0.29 | 98 | 1013.8 |
| 20260506232705 | 71 | 175 | 2.0 | 6.0 | 0.03 | 0.29 | 0.29 | 99 | 1013.9 |
| 20260506231825 | 72 | 178 | 2.0 | 5.0 | 0.01 | 0.27 | 0.28 | 99 | 1013.9 |
| 20260506230905 | 72 | 194 | 2.0 | 7.0 | 0.01 | 0.26 | 0.26 | 99 | 1014.1 |
| 20260506230026 | 73 | 177 | 2.0 | 7.0 | 0.02 | 0.26 | 0.26 | 99 | 1013.3 |
| 20260506225425 | 73 | 196 | 1.0 | 4.0 | 0.04 | 0.26 | 0.26 | 99 | 1013.5 |
| 20260506224504 | 73 | 186 | 1.0 | 5.0 | 0.09 | 0.26 | 0.26 | 99 | 1013.2 |
| 20260506223626 | 73 | 173 | 1.0 | 3.0 | 0.18 | 0.26 | 0.26 | 99 | 1013.7 |
| 20260506222704 | 73 | 299 | 1.0 | 3.0 | 0.24 | 0.26 | 0.26 | 99 | 1013.8 |
| 20260506221804 | 73 | 204 | 1.0 | 3.0 | 0.25 | 0.26 | 0.26 | 99 | 1013.9 |
| 20260506220904 | 73 | 333 | 1.0 | 3.0 | 0.24 | 0.25 | 0.25 | 98 | 1013.9 |
| 20260506220005 | 73 | 342 | 0.0 | 2.0 | 0.23 | 0.24 | 0.24 | 98 | 1013.3 |
| 20260506215404 | 73 | 71 | 0.0 | 2.0 | 0.21 | 0.22 | 0.22 | 97 | 1013.3 |
| 20260506214504 | 73 | 354 | 1.0 | 3.0 | 0.16 | 0.17 | 0.17 | 96 | 1013.7 |
| 20260506213604 | 74 | 359 | 1.0 | 2.0 | 0.07 | 0.08 | 0.08 | 96 | 1013.3 |
| 20260506212725 | 74 | 120 | 2.0 | 4.0 | 0.01 | 0.02 | 0.03 | 95 | 1012.8 |
| 20260506211804 | 74 | 110 | 1.0 | 3.0 | 0.00 | 0.01 | 0.01 | 95 | 1013.2 |
| 20260506210925 | 74 | 85 | 0.0 | 2.0 | 0.00 | 0.01 | 0.01 | 95 | 1013.0 |
| 20260506210025 | 74 | 75 | 0.0 | 1.0 | 0.01 | 0.01 | 0.01 | 95 | 1013.1 |
| 20260506205404 | 75 | 82 | 0.0 | 2.0 | 0.01 | 0.01 | 0.01 | 95 | 1013.6 |
| 20260506204525 | 75 | 124 | 1.0 | 2.0 | 0.01 | 0.01 | 0.01 | 94 | 1013.8 |
| 20260506203604 | 75 | 132 | 0.0 | 1.0 | 0.01 | 0.01 | 0.01 | 94 | 1014.2 |
| 20260506202704 | 75 | 178 | 0.0 | 2.0 | 0.01 | 0.01 | 0.01 | 92 | 1014.4 |
| 20260506201804 | 76 | 265 | 1.0 | 3.0 | 0.01 | 0.01 | 0.01 | 91 | 1014.6 |
| 20260506200904 | 76 | 216 | 1.0 | 5.0 | 0.01 | 0.01 | 0.01 | 89 | 1014.2 |
| 20260506200025 | 77 | 207 | 2.0 | 7.0 | 0.00 | 0.00 | 0.00 | 86 | 1014.9 |
| 20260506195425 | 78 | 219 | 3.0 | 7.0 | 0.00 | 0.00 | 0.00 | 85 | 1015.1 |
| 20260506194504 | 78 | 200 | 2.0 | 6.0 | 0.00 | 0.00 | 0.00 | 84 | 1014.9 |
| 20260506193625 | 78 | 201 | 1.0 | 5.0 | 0.00 | 0.00 | 0.00 | 84 | 1015.0 |
| 20260506192704 | 78 | 201 | 3.0 | 9.0 | 0.00 | 0.00 | 0.00 | 83 | 1015.3 |
| 20260506191804 | 79 | 199 | 3.0 | 7.0 | 0.00 | 0.00 | 0.00 | 82 | 1015.3 |
| 20260506190903 | 79 | 204 | 3.0 | 7.0 | 0.00 | 0.00 | 0.00 | 83 | 1015.5 |
| 20260506190004 | 79 | 191 | 3.0 | 8.0 | 0.00 | 0.00 | 0.00 | 83 | 1015.9 |
| 20260506185404 | 79 | 203 | 4.0 | 8.0 | 0.00 | 0.00 | 0.00 | 83 | 1015.9 |
| 20260506184504 | 79 | 191 | 4.0 | 9.0 | 0.00 | 0.00 | 0.00 | 84 | 1015.9 |
| 20260506183604 | 78 | 204 | 4.0 | 9.0 | 0.00 | 0.00 | 0.00 | 84 | 1016.0 |
| 20260506182703 | 78 | 206 | 3.0 | 8.0 | 0.00 | 0.00 | 0.00 | 86 | 1016.0 |
| 20260506181825 | 77 | 207 | 4.0 | 11.0 | 0.00 | 0.00 | 0.00 | 86 | 1016.1 |
| 20260506180924 | 78 | 192 | 5.0 | 11.0 | 0.00 | 0.00 | 0.00 | 84 | 1016.2 |
| 20260506180004 | 78 | 185 | 5.0 | 11.0 | 0.00 | 0.00 | 0.00 | 84 | 1016.0 |
| 20260506175404 | 78 | 195 | 5.0 | 11.0 | 0.00 | 0.00 | 0.00 | 85 | 1015.9 |
| 20260506174524 | 77 | 208 | 4.0 | 9.0 | 0.00 | 0.00 | 0.00 | 86 | 1016.1 |
| 20260506173603 | 76 | 202 | 3.0 | 11.0 | 0.00 | 0.00 | 0.00 | 87 | 1016.5 |
| 20260506172703 | 76 | 204 | 4.0 | 11.0 | 0.00 | 0.00 | 0.00 | 87 | 1016.7 |
| 20260506171803 | 75 | 200 | 5.0 | 13.0 | 0.00 | 0.00 | 0.00 | 88 | 1016.5 |
| 20260506170903 | 75 | 195 | 5.0 | 12.0 | 0.00 | 0.00 | 0.00 | 87 | 1016.5 |
| 20260506170004 | 75 | 192 | 5.0 | 11.0 | 0.00 | 0.00 | 0.00 | 88 | 1016.7 |
| 20260506165403 | 75 | 192 | 5.0 | 12.0 | 0.00 | 0.00 | 0.00 | 88 | 1016.7 |
| 20260506164504 | 75 | 195 | 4.0 | 12.0 | 0.00 | 0.00 | 0.00 | 88 | 1016.6 |
| 20260506163603 | 75 | 191 | 3.0 | 9.0 | 0.00 | 0.00 | 0.00 | 88 | 1016.9 |
| 20260506162704 | 75 | 197 | 4.0 | 10.0 | 0.00 | 0.00 | 0.00 | 88 | 1017.0 |
| 20260506161803 | 75 | 197 | 4.0 | 10.0 | 0.00 | 0.00 | 0.00 | 87 | 1017.0 |
| 20260506160926 | 75 | 197 | 4.0 | 11.0 | 0.00 | 0.00 | 0.00 | 87 | 1016.9 |
| 20260506160026 | 75 | 195 | 4.0 | 10.0 | 0.00 | 0.00 | 0.00 | 88 | 1017.0 |
| 20260506155405 | 75 | 199 | 3.0 | 8.0 | 0.00 | 0.00 | 0.00 | 88 | 1017.1 |
| 20260506154505 | 75 | 213 | 4.0 | 10.0 | 0.00 | 0.00 | 0.00 | 88 | 1017.4 |
| 20260506153605 | 75 | 218 | 4.0 | 10.0 | 0.00 | 0.00 | 0.00 | 87 | 1017.3 |
| 20260506152705 | 75 | 217 | 4.0 | 11.0 | 0.00 | 0.00 | 0.00 | 88 | 1017.1 |
| 20260506151805 | 75 | 212 | 3.0 | 8.0 | 0.00 | 0.00 | 0.00 | 88 | 1017.3 |
| 20260506150905 | 75 | 205 | 3.0 | 10.0 | 0.00 | 0.00 | 0.00 | 88 | 1017.1 |
| 20260506150005 | 74 | 214 | 3.0 | 10.0 | 0.00 | 0.00 | 0.00 | 87 | 1017.3 |
| 20260506145405 | 74 | 208 | 3.0 | 8.0 | 0.00 | 0.00 | 0.00 | 88 | 1017.4 |
| 20260506144505 | 74 | 200 | 2.0 | 9.0 | 0.00 | 0.00 | 0.00 | 89 | 1017.3 |
| 20260506143605 | 73 | 221 | 3.0 | 10.0 | 0.00 | 0.00 | 0.00 | 90 | 1017.3 |
| 20260506142704 | 73 | 220 | 3.0 | 9.0 | 0.00 | 0.00 | 0.00 | 90 | 1017.5 |
| 20260506141805 | 72 | 213 | 2.0 | 6.0 | 0.00 | 0.00 | 0.00 | 90 | 1017.4 |
| 20260506140904 | 72 | 228 | 2.0 | 9.0 | 0.00 | 0.00 | 0.00 | 89 | 1017.4 |
| 20260506140005 | 72 | 260 | 2.0 | 8.0 | 0.00 | 0.00 | 0.00 | 90 | 1017.2 |
| 20260506135405 | 72 | 237 | 3.0 | 7.0 | 0.00 | 0.00 | 0.00 | 91 | 1017.2 |
| 20260506134504 | 71 | 242 | 2.0 | 12.0 | 0.00 | 0.00 | 0.00 | 92 | 1017.1 |
| 20260506133604 | 71 | 224 | 1.0 | 6.0 | 0.00 | 0.00 | 0.00 | 93 | 1017.1 |
| 20260506132704 | 70 | 218 | 2.0 | 7.0 | 0.00 | 0.00 | 0.00 | 94 | 1016.9 |
| 20260506131825 | 69 | 229 | 2.0 | 6.0 | 0.00 | 0.00 | 0.00 | 95 | 1017.2 |
| 20260506130904 | 69 | 223 | 1.0 | 4.0 | 0.00 | 0.00 | 0.00 | 95 | 1017.0 |
| 20260506130005 | 69 | 222 | 2.0 | 7.0 | 0.00 | 0.00 | 0.00 | 95 | 1017.0 |
| 20260506125404 | 69 | 232 | 2.0 | 7.0 | 0.00 | 0.00 | 0.00 | 95 | 1016.9 |
| 20260506124504 | 68 | 201 | 2.0 | 5.0 | 0.00 | 0.00 | 0.00 | 96 | 1016.8 |
| 20260506123604 | 68 | 186 | 1.0 | 5.0 | 0.00 | 0.00 | 0.00 | 97 | 1016.5 |
| 20260506122704 | 68 | 202 | 2.0 | 5.0 | 0.00 | 0.00 | 0.00 | 97 | 1016.5 |
| 20260506121804 | 68 | 192 | 2.0 | 5.0 | 0.00 | 0.00 | 0.00 | 97 | 1016.2 |
| 20260506120904 | 68 | 202 | 2.0 | 5.0 | 0.00 | 0.00 | 0.00 | 97 | 1016.2 |
| 20260506120025 | 68 | 201 | 1.0 | 4.0 | 0.00 | 0.00 | 0.00 | 97 | 1016.2 |
| 20260506115404 | 68 | 187 | 1.0 | 4.0 | 0.00 | 0.00 | 0.00 | 97 | 1016.1 |
| 20260506114504 | 67 | 196 | 1.0 | 4.0 | 0.00 | 0.00 | 0.00 | 97 | 1016.0 |
| 20260506113604 | 67 | 204 | 0.0 | 3.0 | 0.00 | 0.00 | 0.00 | 97 | 1015.8 |
| 20260506112704 | 67 | 216 | 1.0 | 4.0 | 0.00 | 0.00 | 0.00 | 97 | 1015.7 |
| 20260506111825 | 67 | 217 | 1.0 | 6.0 | 0.00 | 0.00 | 0.00 | 97 | 1015.5 |
| 20260506110904 | 67 | 189 | 2.0 | 4.0 | 0.00 | 0.00 | 0.00 | 97 | 1015.3 |
| 20260506110004 | 67 | 215 | 1.0 | 4.0 | 0.00 | 0.00 | 0.00 | 97 | 1015.2 |
| 20260506105404 | 67 | 226 | 0.0 | 2.0 | 0.00 | 0.00 | 0.00 | 97 | 1015.2 |
| 20260506104525 | 67 | 227 | 0.0 | 1.0 | 0.00 | 0.00 | 0.00 | 97 | 1015.1 |
| 20260506103604 | 67 | 196 | 0.0 | 3.0 | 0.00 | 0.00 | 0.00 | 97 | 1014.7 |
| 20260506102725 | 67 | 197 | 1.0 | 4.0 | 0.00 | 0.00 | 0.00 | 97 | 1014.4 |
| 20260506101825 | 67 | 199 | 2.0 | 6.0 | 0.00 | 0.00 | 0.00 | 97 | 1014.1 |
| 20260506100904 | 67 | 168 | 1.0 | 4.0 | 0.00 | 0.00 | 0.00 | 97 | 1014.0 |
| 20260506100004 | 66 | 165 | 1.0 | 5.0 | 0.00 | 0.00 | 0.00 | 97 | 1013.9 |
| 20260506095404 | 66 | 154 | 1.0 | 4.0 | 0.00 | 0.00 | 0.00 | 97 | 1013.9 |
| 20260506094504 | 66 | 146 | 2.0 | 5.0 | 0.00 | 0.00 | 0.00 | 97 | 1013.8 |
| 20260506093604 | 66 | 146 | 2.0 | 5.0 | 0.00 | 0.00 | 0.00 | 97 | 1013.7 |
| 20260506092703 | 66 | 146 | 2.0 | 3.0 | 0.00 | 0.00 | 0.00 | 96 | 1013.8 |
| 20260506091825 | 66 | 141 | 1.0 | 3.0 | 0.00 | 0.00 | 0.00 | 96 | 1013.7 |
| 20260506090924 | 66 | 152 | 0.0 | 2.0 | 0.00 | 0.00 | 0.00 | 95 | 1013.8 |
| 20260506090003 | 66 | 155 | 0.0 | 3.0 | 0.00 | 0.00 | 0.00 | 95 | 1013.7 |
| 20260506085403 | 67 | 143 | 2.0 | 5.0 | 0.00 | 0.00 | 0.00 | 94 | 1013.8 |
| 20260506084503 | 67 | 140 | 2.0 | 5.0 | 0.00 | 0.00 | 0.00 | 94 | 1013.7 |
| 20260506083603 | 67 | 120 | 1.0 | 4.0 | 0.00 | 0.00 | 0.00 | 94 | 1014.0 |
| 20260506082703 | 67 | 142 | 1.0 | 3.0 | 0.00 | 0.00 | 0.00 | 94 | 1013.9 |
| 20260506081804 | 67 | 148 | 2.0 | 4.0 | 0.00 | 0.00 | 0.00 | 93 | 1013.9 |
| 20260506080925 | 67 | 149 | 1.0 | 5.0 | 0.00 | 0.00 | 0.00 | 93 | 1013.7 |
| 20260506072703 | 68 | 181 | 1.0 | 3.0 | 0.00 | 0.00 | 0.00 | 93 | 1014.1 |
| 20260506071803 | 67 | 182 | 1.0 | 3.0 | 0.00 | 0.00 | 0.00 | 92 | 1014.0 |
| 20260506070905 | 67 | 195 | 0.0 | 3.0 | 0.00 | 0.00 | 0.00 | 92 | 1014.0 |
| 20260506061805 | 68 | 212 | 2.0 | 9.0 | 0.00 | 0.00 | 0.00 | 89 | 1014.5 |
| 20260506060904 | 69 | 200 | 2.0 | 5.0 | 0.00 | 0.00 | 0.00 | 88 | 1014.3 |
| 20260506050926 | 70 | 196 | 2.0 | 5.0 | 0.00 | 0.00 | 0.00 | 83 | 1014.6 |
| 20260506044505 | 70 | 190 | 4.0 | 10.0 | 0.00 | 0.00 | 0.00 | 81 | 1014.6 |
| 20260506043605 | 71 | 201 | 3.0 | 8.0 | 0.00 | 0.00 | 0.00 | 80 | 1014.8 |
| 20260506042704 | 71 | 203 | 4.0 | 11.0 | 0.00 | 0.00 | 0.00 | 79 | 1014.8 |
| 20260506041804 | 71 | 200 | 5.0 | 14.0 | 0.00 | 0.00 | 0.00 | 79 | 1015.1 |
| 20260506040904 | 71 | 209 | 4.0 | 14.0 | 0.00 | 0.00 | 0.00 | 78 | 1015.3 |
| 20260506040004 | 72 | 206 | 4.0 | 10.0 | 0.00 | 0.00 | 0.00 | 78 | 1015.1 |
| 20260506035404 | 72 | 209 | 4.0 | 10.0 | 0.00 | 0.00 | 0.00 | 77 | 1015.3 |
| 20260506034504 | 72 | 205 | 5.0 | 12.0 | 0.00 | 0.00 | 0.00 | 77 | 1014.9 |
| 20260506033604 | 72 | 209 | 4.0 | 10.0 | 0.00 | 0.00 | 0.00 | 76 | 1015.1 |
| 20260506032725 | 73 | 198 | 4.0 | 11.0 | 0.00 | 0.00 | 0.00 | 76 | 1014.7 |
| 20260506031825 | 73 | 203 | 4.0 | 14.0 | 0.00 | 0.00 | 0.00 | 76 | 1014.6 |
| 20260506030925 | 73 | 208 | 3.0 | 12.0 | 0.00 | 0.00 | 0.00 | 75 | 1014.9 |
| 20260506030004 | 73 | 210 | 4.0 | 12.0 | 0.00 | 0.00 | 0.00 | 75 | 1014.7 |
| 20260506025404 | 73 | 205 | 4.0 | 12.0 | 0.00 | 0.00 | 0.00 | 75 | 1014.8 |
| 20260506024504 | 73 | 195 | 4.0 | 12.0 | 0.00 | 0.00 | 0.00 | 75 | 1014.5 |
| 20260506023625 | 73 | 201 | 3.0 | 7.0 | 0.00 | 0.00 | 0.00 | 75 | 1014.7 |